| time (UTC) | temp F | wind direction | speed knots | gust knots | rain 1hr in | rain 24hr in | rain mn in | humidity % | barometer mb |
| 20260506071601 | 61 | 15 | 10.4 | 19.1 | 0.00 | 0.02 | 0.02 | 92 | 1026.6 |
| 20260506061544 | 61 | 15 | 10.4 | 18.2 | 0.00 | 0.02 | 0.02 | 91 | 1026.3 |
| 20260506044538 | 62 | 27 | 16.5 | 24.3 | 0.00 | 0.02 | 0.02 | 89 | 1026.4 |
| 20260506043054 | 62 | 351 | 14.8 | 23.5 | 0.00 | 0.02 | 0.02 | 89 | 1026.4 |
| 20260506043026 | 62 | 349 | 15.6 | 23.5 | 0.00 | 0.02 | 0.02 | 88 | 1026.4 |
| 20260506041547 | 62 | 356 | 15.6 | 24.3 | 0.00 | 0.02 | 0.02 | 89 | 1026.4 |
| 20260506040059 | 62 | 25 | 14.8 | 21.7 | 0.00 | 0.02 | 0.02 | 89 | 1026.5 |
| 20260506034531 | 62 | 30 | 12.2 | 26.1 | 0.00 | 0.02 | 0.02 | 89 | 1026.4 |
| 20260506033054 | 62 | 26 | 20.9 | 26.9 | 0.00 | 0.02 | 0.02 | 88 | 1026.4 |
| 20260506031539 | 62 | 19 | 13.9 | 23.5 | 0.00 | 0.02 | 0.02 | 88 | 1026.3 |
| 20260506030030 | 62 | 38 | 13.0 | 24.3 | 0.00 | 0.02 | 0.02 | 88 | 1026.2 |
| 20260506024526 | 62 | 29 | 15.6 | 25.2 | 0.00 | 0.02 | 0.02 | 87 | 1026.3 |
| 20260506023042 | 62 | 341 | 17.4 | 25.2 | 0.00 | 0.02 | 0.02 | 86 | 1026.3 |
| 20260506021548 | 62 | 20 | 13.0 | 21.7 | 0.00 | 0.02 | 0.02 | 85 | 1026.1 |
| 20260506020019 | 63 | 23 | 16.5 | 26.9 | 0.00 | 0.02 | 0.02 | 84 | 1026.2 |
| 20260506014549 | 62 | 18 | 15.6 | 25.2 | 0.00 | 0.02 | 0.02 | 85 | 1026.3 |
| 20260506013044 | 62 | 36 | 13.9 | 23.5 | 0.00 | 0.02 | 0.02 | 85 | 1026.4 |
| 20260506011524 | 62 | 19 | 17.4 | 26.9 | 0.00 | 0.02 | 0.02 | 84 | 1026.6 |
| 20260506010003 | 62 | 20 | 18.2 | 28.7 | 0.00 | 0.02 | 0.02 | 84 | 1026.7 |
| 20260506004539 | 63 | 2 | 15.6 | 23.5 | 0.00 | 0.02 | 0.02 | 83 | 1026.9 |
| 20260506003027 | 62 | 6 | 13.9 | 21.7 | 0.00 | 0.02 | 0.02 | 83 | 1027.1 |
| 20260506001521 | 62 | 16 | 12.2 | 22.6 | 0.00 | 0.02 | 0.02 | 84 | 1027.1 |
| 20260506000053 | 62 | 15 | 9.6 | 20.9 | 0.00 | 0.02 | 0.02 | 84 | 1027.4 |
| 20260505234612 | 62 | 10 | 11.3 | 19.1 | 0.00 | 0.02 | 0.02 | 84 | 1027.5 |
| 20260505233011 | 61 | 27 | 13.0 | 21.7 | 0.00 | 0.02 | 0.02 | 86 | 1027.5 |
| 20260505231526 | 61 | 17 | 13.0 | 22.6 | 0.00 | 0.02 | 0.02 | 87 | 1027.7 |
| 20260505230032 | 60 | 7 | 12.2 | 19.1 | 0.00 | 0.02 | 0.02 | 87 | 1027.7 |
| 20260505224533 | 59 | 53 | 10.4 | 17.4 | 0.00 | 0.02 | 0.02 | 89 | 1027.8 |
| 20260505223030 | 59 | 13 | 13.0 | 21.7 | 0.00 | 0.02 | 0.02 | 90 | 1027.7 |
| 20260505221528 | 58 | 51 | 10.4 | 17.4 | 0.02 | 0.02 | 0.02 | 93 | 1027.8 |
| 20260505220023 | 58 | 15 | 11.3 | 13.9 | 0.02 | 0.02 | 0.02 | 93 | 1027.9 |
| 20260505214557 | 58 | 31 | 10.4 | 14.8 | 0.02 | 0.02 | 0.02 | 93 | 1027.9 |
| 20260505213031 | 58 | 6 | 9.6 | 14.8 | 0.02 | 0.02 | 0.02 | 94 | 1028.1 |
| 20260505211540 | 58 | 55 | 9.6 | 16.5 | 0.01 | 0.01 | 0.01 | 93 | 1028.1 |
| 20260505204524 | 58 | 29 | 6.1 | 13.0 | 0.00 | 0.00 | 0.00 | 92 | 1028.3 |
| 20260505203006 | 58 | 19 | 7.8 | 19.1 | 0.00 | 0.00 | 0.00 | 90 | 1028.4 |
| 20260505201507 | 59 | 32 | 11.3 | 18.2 | 0.00 | 0.00 | 0.00 | 88 | 1028.3 |
| 20260505200003 | 59 | 46 | 8.7 | 17.4 | 0.00 | 0.00 | 0.00 | 86 | 1028.0 |
| 20260505194502 | 59 | 5 | 8.7 | 14.8 | 0.00 | 0.00 | 0.00 | 86 | 1028.0 |
| 20260505193050 | 59 | 112 | 7.0 | 11.3 | 0.00 | 0.00 | 0.00 | 85 | 1028.0 |
| 20260505191503 | 59 | 67 | 7.8 | 14.8 | 0.00 | 0.00 | 0.00 | 85 | 1027.9 |
| 20260505190003 | 58 | 30 | 7.8 | 14.8 | 0.00 | 0.00 | 0.00 | 85 | 1027.9 |
| 20260505184601 | 58 | 26 | 8.7 | 13.9 | 0.00 | 0.00 | 0.00 | 86 | 1028.0 |
| 20260505183102 | 58 | 45 | 8.7 | 13.9 | 0.00 | 0.00 | 0.00 | 86 | 1028.0 |
| 20260505181559 | 58 | 23 | 3.5 | 10.4 | 0.00 | 0.00 | 0.00 | 85 | 1028.0 |
| 20260505174555 | 58 | 33 | 4.3 | 11.3 | 0.00 | 0.00 | 0.00 | 85 | 1028.2 |
| 20260505173054 | 58 | 20 | 4.3 | 16.5 | 0.00 | 0.00 | 0.00 | 83 | 1028.3 |
| 20260505171556 | 59 | 352 | 7.0 | 10.4 | 0.00 | 0.00 | 0.00 | 81 | 1028.3 |
| 20260505170053 | 58 | 64 | 5.2 | 13.0 | 0.00 | 0.00 | 0.00 | 81 | 1028.3 |
| 20260505164551 | 58 | 65 | 7.8 | 13.0 | 0.00 | 0.00 | 0.00 | 83 | 1028.5 |
| 20260505163050 | 58 | 5 | 6.1 | 13.0 | 0.00 | 0.00 | 0.00 | 83 | 1028.5 |
| 20260505161544 | 59 | 84 | 9.6 | 14.8 | 0.00 | 0.00 | 0.00 | 80 | 1028.8 |
| 20260505151545 | 59 | 354 | 8.7 | 16.5 | 0.00 | 0.00 | 0.00 | 77 | 1029.3 |
| 20260505140109 | 60 | 344 | 8.7 | 13.0 | 0.00 | 0.00 | 0.00 | 73 | 1029.9 |
| 20260505124513 | 58 | 345 | 5.2 | 7.8 | 0.00 | 0.00 | 0.00 | 76 | 1030.3 |
| 20260505123038 | 58 | 329 | 0.0 | 2.6 | 0.00 | 0.00 | 0.00 | 75 | 1030.5 |
| 20260505121524 | 58 | 55 | 1.7 | 5.2 | 0.00 | 0.00 | 0.00 | 75 | 1030.5 |
| 20260505120106 | 58 | 5 | 4.3 | 9.6 | 0.00 | 0.00 | 0.00 | 75 | 1030.5 |
| 20260505114509 | 57 | 36 | 3.5 | 7.8 | 0.00 | 0.00 | 0.00 | 76 | 1030.6 |
| 20260505113105 | 56 | 54 | 2.6 | 5.2 | 0.00 | 0.00 | 0.00 | 77 | 1030.6 |
| 20260505111525 | 56 | 8 | 2.6 | 7.0 | 0.00 | 0.00 | 0.00 | 78 | 1030.6 |
| 20260505101533 | 57 | 42 | 4.3 | 9.6 | 0.00 | 0.00 | 0.00 | 73 | 1031.2 |
| 20260505100024 | 57 | 31 | 4.3 | 8.7 | 0.00 | 0.00 | 0.00 | 72 | 1031.2 |
| 20260505094527 | 57 | 53 | 4.3 | 9.6 | 0.00 | 0.00 | 0.00 | 71 | 1031.1 |
| 20260505093032 | 57 | 25 | 3.5 | 8.7 | 0.00 | 0.00 | 0.00 | 72 | 1031.1 |
| 20260505091525 | 57 | 17 | 2.6 | 8.7 | 0.00 | 0.00 | 0.00 | 72 | 1031.1 |
| 20260505090029 | 57 | 45 | 4.3 | 7.8 | 0.00 | 0.00 | 0.00 | 72 | 1031.0 |
| 20260505084527 | 57 | 95 | 2.6 | 8.7 | 0.00 | 0.00 | 0.00 | 73 | 1031.1 |
| 20260505083020 | 57 | 34 | 6.1 | 12.2 | 0.00 | 0.00 | 0.00 | 72 | 1031.2 |
| 20260505081521 | 57 | 44 | 5.2 | 11.3 | 0.00 | 0.00 | 0.00 | 73 | 1031.3 |
| 20260505080026 | 57 | 41 | 3.5 | 11.3 | 0.00 | 0.00 | 0.00 | 74 | 1031.3 |
| 20260505074518 | 56 | 34 | 0.0 | 5.2 | 0.00 | 0.00 | 0.00 | 75 | 1031.4 |